Vorticity
nan nan nan nan nan nan nan nan nan nan nan nan nan nan nan nan nan nan nan nan nan nan nan nan nan nan nan nan nan nan nan nan nan
nan 8 6 5 5 5 5 4 4 4 4 5 6 8 6 4 6 8 9 10 4 1 2 1 5 9 7 10 12 9 9 7 nan
nan 5 5 5 5 5 5 4 3 3 5 4 7 7 4 4 6 6 6 8 5 5 5 6 5 4 5 4 5 9 8 6 nan
nan 5 4 5 5 5 5 4 3 3 4 4 5 6 6 5 5 5 6 7 6 6 6 6 6 6 7 7 3 1 5 5 nan
nan 4 5 5 6 6 5 5 4 4 5 6 6 10 6 3 5 5 7 6 5 5 5 6 6 6 7 8 8 4 4 5 nan
nan 6 6 5 6 5 5 4 4 5 6 8 8 8 7 6 6 8 8 5 5 5 5 5 5 5 6 6 7 8 6 6 nan
nan 7 7 7 6 7 7 7 6 5 6 6 8 6 7 7 7 8 8 5 4 5 5 5 5 5 5 6 6 6 7 7 nan
nan 7 7 8 7 7 8 8 7 6 6 7 7 6 6 8 8 9 8 5 5 5 5 5 5 6 5 5 6 6 6 6 nan
nan 7 8 7 8 8 7 7 7 7 6 7 6 7 6 7 8 9 9 7 6 5 5 5 5 5 5 6 6 5 6 6 nan
nan 7 8 7 7 8 8 7 7 7 8 7 7 7 7 6 6 8 11 9 8 7 5 5 6 5 5 5 6 6 6 5 nan
nan 8 8 7 7 7 8 7 7 8 8 7 8 8 8 8 6 7 11 12 9 8 6 5 5 6 5 5 6 6 5 6 nan
nan 7 7 8 8 7 7 7 7 8 8 9 8 9 9 8 8 7 8 12 13 10 7 6 6 6 6 6 6 6 6 6 nan
nan 6 7 8 8 8 7 8 7 8 7 8 8 8 9 9 9 7 7 7 11 14 11 9 8 7 6 6 5 6 6 6 nan
nan 7 8 8 7 8 7 7 8 7 7 7 7 8 9 9 9 9 8 7 6 10 13 12 12 10 8 7 6 6 6 6 nan
nan 7 10 9 7 6 8 9 7 7 9 10 9 8 8 8 8 9 9 9 8 7 9 10 14 14 10 7 7 6 6 6 nan
nan 8 8 8 9 8 7 9 8 8 10 8 11 10 11 8 7 8 8 8 11 8 7 6 8 15 16 11 8 8 6 6 nan
nan 8 9 7 9 10 10 7 7 8 9 5 6 9 10 14 12 8 9 8 10 10 10 8 6 6 11 16 14 11 11 6 nan
nan 8 9 9 9 9 9 10 7 7 7 9 3 8 9 7 11 12 12 11 7 9 10 9 9 8 8 9 14 13 13 10 nan
nan 12 8 8 9 9 8 8 9 10 7 9 9 7 10 7 6 8 10 11 9 9 10 12 11 9 9 13 12 10 7 11 nan
nan nan nan nan nan nan nan nan nan nan nan nan nan nan nan nan nan nan nan nan nan nan nan nan nan nan nan nan nan nan nan nan nan
CAPE
84 367 491 71 0 0 0 0 0 0 0 0 0 0 0 0 0 0 0 0 182 245 191 185 229 267 56 39 43 33 0 343 404
346 495 58 8 0 0 0 0 0 0 0 0 0 0 0 0 0 0 19 124 204 98 51 23 50 247 188 297 247 57 245 351 352
276 161 56 3 0 0 0 0 0 0 0 0 0 17 0 0 0 0 0 78 29 0 0 0 8 9 68 194 366 376 268 260 257
182 161 89 35 6 0 0 0 18 0 0 0 0 0 0 0 0 0 0 29 0 0 0 1 3 2 0 0 6 124 96 104 82
180 126 115 78 54 45 28 35 46 30 0 0 0 0 0 0 0 0 0 24 0 0 0 2 3 2 2 2 3 2 15 12 11
67 30 82 106 101 71 47 65 80 43 0 0 0 0 0 0 0 0 85 31 0 0 0 0 1 1 0 1 3 5 5 6 3
22 23 46 98 113 124 115 100 80 10 0 0 0 0 0 0 0 0 154 37 19 0 0 0 0 0 0 0 1 2 1 1 2
1 0 8 19 53 50 92 75 13 0 0 0 0 0 0 0 0 0 150 52 36 1 0 0 0 0 0 1 1 1 0 0 1
0 0 0 0 3 11 17 6 0 0 0 0 0 0 0 0 0 0 41 166 43 2 0 0 0 0 0 1 0 1 1 1 1
0 0 0 0 0 0 0 0 0 0 0 0 0 0 0 0 0 0 0 54 128 26 0 0 0 0 1 1 0 0 1 1 1
0 0 0 0 0 0 0 0 0 0 0 0 0 0 0 0 0 0 0 1 91 94 12 0 0 1 2 4 2 1 2 2 1
0 0 0 0 0 0 0 0 0 0 0 0 0 0 0 0 0 0 0 0 3 74 0 1 1 2 3 4 5 2 2 3 3
0 0 0 0 0 0 0 0 0 0 0 0 0 0 0 0 0 0 0 0 0 0 55 34 0 3 4 6 11 6 3 3 2
0 0 0 0 0 0 0 0 0 0 0 0 0 0 0 0 0 0 0 0 0 0 0 4 10 6 3 8 14 13 3 1 0
0 0 0 0 0 0 0 0 0 0 0 0 0 0 0 0 0 0 0 0 0 0 0 0 0 0 0 1 12 21 10 2 0
0 0 0 0 0 0 0 0 0 0 0 0 0 0 0 0 0 0 0 0 0 0 0 0 0 0 0 0 4 15 27 10 0
0 0 0 0 0 0 0 0 0 0 0 0 0 0 0 0 0 0 0 0 0 0 0 0 0 0 0 0 0 17 19 32 9
0 0 0 0 0 0 0 0 0 0 0 0 0 0 0 0 0 0 0 0 0 0 0 0 0 0 0 0 0 9 25 29 37
0 0 0 0 0 0 0 0 0 0 0 0 0 0 0 0 0 0 0 0 0 0 0 0 0 0 0 0 0 0 36 54 43
0 0 0 0 0 0 0 0 0 0 0 0 0 0 0 0 0 0 0 0 0 0 0 0 0 0 0 0 0 0 8 29 55